• In Hungary
  • List of Countries
  • For 7 days
  • Water Temperature
  • Satellite Maps
  • Weather Map
  • News
  • Weather Widgets
  • user-avatar
    Login

    Hourly Weather Lakatunga

    Today, 15 October, Monday

    Time Temperature Precipitation Wind Pressure Humidity
    00:00 +11°C° 0 mm 1 mps 543 mmHg 90%
    01:00 +10°C° 0 mm 1 mps 542 mmHg 90%
    02:00 +9°C° 0 mm 2 mps 542 mmHg 90%
    03:00 +9°C° 0 mm 2 mps 542 mmHg 90%
    04:00 +9°C° 0 mm 2 mps 541 mmHg 89%
    05:00 +9°C° 0 mm 2 mps 542 mmHg 87%
    06:00 +10°C° 0 mm 2 mps 542 mmHg 84%
    07:00 +12°C° 0 mm 2 mps 543 mmHg 81%
    08:00 +14°C° 0 mm 2 mps 544 mmHg 73%
    09:00 +16°C° 0 mm 2 mps 546 mmHg 64%
    10:00 +19°C° 0 mm 3 mps 547 mmHg 56%
    11:00 +19°C° 0 mm 3 mps 547 mmHg 55%
    12:00 +20°C° 0 mm 3 mps 546 mmHg 54%
    13:00 +20°C° 0 mm 3 mps 546 mmHg 53%
    14:00 +19°C° 0.1 mm 3 mps 545 mmHg 58%
    15:00 +18°C° 0.1 mm 3 mps 544 mmHg 62%
    16:00 +17°C° 0.1 mm 2 mps 543 mmHg 67%
    17:00 +16°C° 0.2 mm 2 mps 543 mmHg 73%
    18:00 +15°C° 0.2 mm 2 mps 543 mmHg 80%
    19:00 +13°C° 0.2 mm 1 mps 542 mmHg 86%
    20:00 +13°C° 0.2 mm 1 mps 543 mmHg 87%
    21:00 +13°C° 0.2 mm 1 mps 543 mmHg 87%
    22:00 +13°C° 0.2 mm 1 mps 544 mmHg 88%
    23:00 +13°C° 0.1 mm 1 mps 543 mmHg 89%

    Tomorrow, 16 October, Tuesday

    Time Temperature Precipitation Wind Pressure Humidity
    00:00 +12°C° 0.1 mm 1 mps 543 mmHg 89%
    01:00 +12°C° 0.1 mm 1 mps 542 mmHg 90%
    02:00 +11°C° 0 mm 1 mps 542 mmHg 90%
    03:00 +11°C° 0 mm 1 mps 542 mmHg 90%
    04:00 +11°C° 0 mm 1 mps 541 mmHg 90%
    05:00 +11°C° 0 mm 1 mps 542 mmHg 87%
    06:00 +12°C° 0 mm 1 mps 542 mmHg 85%
    07:00 +12°C° 0 mm 1 mps 542 mmHg 82%
    08:00 +14°C° 0 mm 2 mps 544 mmHg 74%
    09:00 +17°C° 0 mm 2 mps 545 mmHg 65%
    10:00 +19°C° 0 mm 2 mps 547 mmHg 56%
    11:00 +19°C° 0.1 mm 2 mps 546 mmHg 57%
    12:00 +19°C° 0.1 mm 3 mps 545 mmHg 58%
    13:00 +19°C° 0.1 mm 3 mps 545 mmHg 59%
    14:00 +18°C° 0.2 mm 2 mps 544 mmHg 64%
    15:00 +17°C° 0.2 mm 2 mps 543 mmHg 69%
    16:00 +16°C° 0.2 mm 2 mps 542 mmHg 74%
    17:00 +15°C° 0.3 mm 1 mps 542 mmHg 80%
    18:00 +14°C° 0.3 mm 1 mps 542 mmHg 85%
    19:00 +13°C° 0.3 mm 1 mps 542 mmHg 90%
    20:00 +13°C° 0.1 mm 1 mps 542 mmHg 90%
    21:00 +13°C° 0.1 mm 1 mps 542 mmHg 89%
    22:00 +13°C° 0.1 mm 1 mps 543 mmHg 89%
    23:00 +12°C° 0 mm 1 mps 542 mmHg 89%

    Day after tomorrow, 17 October, Wednesday

    Time Temperature Precipitation Wind Pressure Humidity
    00:00 +12°C° 0 mm 1 mps 542 mmHg 90%
    01:00 +12°C° 0 mm 1 mps 542 mmHg 90%
    02:00 +12°C° 0 mm 1 mps 541 mmHg 90%
    03:00 +11°C° 0 mm 1 mps 541 mmHg 90%
    04:00 +11°C° 0 mm 1 mps 541 mmHg 90%
    05:00 +12°C° 0 mm 1 mps 541 mmHg 87%
    06:00 +12°C° 0 mm 1 mps 542 mmHg 84%
    07:00 +13°C° 0 mm 1 mps 542 mmHg 82%
    08:00 +15°C° 0 mm 2 mps 544 mmHg 74%
    09:00 +17°C° 0 mm 2 mps 545 mmHg 67%
    10:00 +19°C° 0 mm 2 mps 546 mmHg 59%
    11:00 +18°C° 0.1 mm 2 mps 546 mmHg 61%
    12:00 +18°C° 0.1 mm 2 mps 545 mmHg 63%
    13:00 +18°C° 0.1 mm 2 mps 544 mmHg 64%
    14:00 +17°C° 0.6 mm 2 mps 543 mmHg 67%
    15:00 +17°C° 0.6 mm 2 mps 543 mmHg 70%
    16:00 +16°C° 0.6 mm 2 mps 542 mmHg 72%
    17:00 +15°C° 0.5 mm 2 mps 542 mmHg 78%
    18:00 +14°C° 0.5 mm 1 mps 542 mmHg 83%
    19:00 +13°C° 0.5 mm 1 mps 541 mmHg 88%
    20:00 +13°C° 0.2 mm 1 mps 542 mmHg 88%
    21:00 +13°C° 0.2 mm 1 mps 542 mmHg 89%
    22:00 +12°C° 0.2 mm 1 mps 543 mmHg 89%
    23:00 +12°C° 0.1 mm 1 mps 542 mmHg 89%

    18 October, Thursday

    Time Temperature Precipitation Wind Pressure Humidity
    00:00 +12°C° 0.1 mm 1 mps 542 mmHg 89%
    01:00 +11°C° 0.1 mm 1 mps 541 mmHg 90%
    02:00 +11°C° 0.2 mm 1 mps 541 mmHg 89%
    03:00 +11°C° 0.2 mm 1 mps 540 mmHg 89%
    04:00 +11°C° 0.2 mm 1 mps 540 mmHg 89%
    05:00 +11°C° 0.1 mm 1 mps 541 mmHg 86%
    06:00 +12°C° 0.1 mm 1 mps 541 mmHg 84%
    07:00 +12°C° 0.1 mm 1 mps 542 mmHg 81%
    08:00 +15°C° 0 mm 2 mps 543 mmHg 72%
    09:00 +17°C° 0 mm 2 mps 545 mmHg 62%
    10:00 +20°C° 0 mm 2 mps 547 mmHg 53%
    11:00 +19°C° 0.3 mm 3 mps 546 mmHg 55%
    12:00 +19°C° 0.3 mm 3 mps 545 mmHg 57%
    13:00 +19°C° 0.3 mm 3 mps 544 mmHg 59%
    14:00 +18°C° 0.5 mm 3 mps 544 mmHg 62%
    15:00 +18°C° 0.5 mm 2 mps 543 mmHg 65%
    16:00 +17°C° 0.5 mm 2 mps 542 mmHg 68%
    17:00 +15°C° 0.4 mm 2 mps 542 mmHg 75%
    18:00 +14°C° 0.4 mm 1 mps 542 mmHg 82%
    19:00 +12°C° 0.4 mm 1 mps 541 mmHg 88%
    20:00 +12°C° 0.1 mm 1 mps 542 mmHg 89%
    21:00 +12°C° 0.1 mm 1 mps 542 mmHg 89%
    22:00 +11°C° 0.1 mm 1 mps 542 mmHg 90%
    23:00 +11°C° 0 mm 1 mps 542 mmHg 90%

    19 October, Friday

    Time Temperature Precipitation Wind Pressure Humidity
    00:00 +10°C° 0 mm 1 mps 541 mmHg 90%
    01:00 +10°C° 0 mm 1 mps 541 mmHg 90%
    02:00 +10°C° 0 mm 1 mps 540 mmHg 89%
    03:00 +9°C° 0 mm 1 mps 540 mmHg 87%
    04:00 +9°C° 0 mm 1 mps 539 mmHg 86%
    05:00 +10°C° 0 mm 1 mps 540 mmHg 82%
    06:00 +11°C° 0 mm 1 mps 541 mmHg 78%
    07:00 +12°C° 0 mm 1 mps 542 mmHg 74%
    08:00 +14°C° 0 mm 1 mps 544 mmHg 65%
    09:00 +17°C° 0 mm 2 mps 545 mmHg 56%
    10:00 +19°C° 0 mm 2 mps 547 mmHg 46%
    11:00 +19°C° 0.1 mm 2 mps 546 mmHg 48%
    12:00 +19°C° 0.1 mm 2 mps 546 mmHg 50%
    13:00 +20°C° 0.1 mm 2 mps 545 mmHg 52%
    14:00 +19°C° 0.3 mm 2 mps 544 mmHg 57%
    15:00 +18°C° 0.3 mm 2 mps 543 mmHg 63%
    16:00 +17°C° 0.3 mm 2 mps 543 mmHg 68%
    17:00 +15°C° 0.2 mm 1 mps 542 mmHg 75%
    18:00 +14°C° 0.2 mm 1 mps 542 mmHg 81%
    19:00 +13°C° 0.2 mm 1 mps 542 mmHg 88%
    20:00 +12°C° 0.1 mm 1 mps 542 mmHg 89%
    21:00 +12°C° 0.1 mm 1 mps 542 mmHg 90%
    22:00 +12°C° 0.1 mm 1 mps 542 mmHg 91%
    23:00 +11°C° 0 mm 0 mps 542 mmHg 90%

    20 October, Saturday

    Time Temperature Precipitation Wind Pressure Humidity
    00:00 +10°C° 0 mm 0 mps 541 mmHg 90%
    01:00 +10°C° 0 mm 0 mps 541 mmHg 89%
    02:00 +10°C° 0 mm 0 mps 540 mmHg 89%
    03:00 +10°C° 0 mm 0 mps 540 mmHg 88%
    04:00 +10°C° 0 mm 0 mps 540 mmHg 87%
    05:00 +11°C° 0 mm 1 mps 541 mmHg 84%
    06:00 +12°C° 0 mm 1 mps 542 mmHg 80%
    07:00 +13°C° 0 mm 1 mps 542 mmHg 77%
    08:00 +14°C° 0 mm 1 mps 544 mmHg 70%
    09:00 +16°C° 0 mm 2 mps 545 mmHg 63%
    10:00 +18°C° 0 mm 2 mps 546 mmHg 57%
    11:00 +18°C° 0.3 mm 2 mps 545 mmHg 58%
    12:00 +18°C° 0.3 mm 2 mps 545 mmHg 60%
    13:00 +18°C° 0.3 mm 2 mps 544 mmHg 61%
    14:00 +18°C° 1 mm 2 mps 543 mmHg 64%
    15:00 +17°C° 1 mm 2 mps 543 mmHg 67%
    16:00 +16°C° 1 mm 1 mps 542 mmHg 70%
    17:00 +15°C° 1 mm 1 mps 542 mmHg 75%
    18:00 +14°C° 1 mm 1 mps 542 mmHg 80%
    19:00 +13°C° 1 mm 1 mps 542 mmHg 85%
    20:00 +13°C° 0.4 mm 1 mps 542 mmHg 85%
    21:00 +12°C° 0.4 mm 0 mps 542 mmHg 85%
    22:00 +12°C° 0.4 mm 0 mps 542 mmHg 85%
    23:00 +12°C° 0.2 mm 1 mps 542 mmHg 84%
    Show more